When you browse on this site, cookies collect data to enhance your experience and personalize the content and advertising you see.
Visit our Privacy Policy to learn more. By continuing to use the site, you agree to this use of cookies and data.
  • En España
  • Lista de países
  • Para 7 días
  • Temperatura del agua
  • Mapa Satelital
  • El tiempo en el mapa
  • Informadores
  • user-avatar
    Iniciar sesión

    Tiempo cada hora Jablanac

    Hoy, 18 Junio, Martes

    Tiempo Temperatura Precipitaciones Viento Presión Humedad
    00:00 +21°C° 0 mm 4 mps 756 mmHg 90%
    01:00 +20°C° 0 mm 4 mps 756 mmHg 90%
    02:00 +20°C° 0 mm 4 mps 756 mmHg 91%
    03:00 +20°C° 0 mm 4 mps 755 mmHg 92%
    04:00 +20°C° 0 mm 4 mps 755 mmHg 93%
    05:00 +21°C° 0 mm 4 mps 755 mmHg 91%
    06:00 +22°C° 0 mm 3 mps 756 mmHg 88%
    07:00 +24°C° 0 mm 3 mps 756 mmHg 85%
    08:00 +25°C° 0.1 mm 3 mps 756 mmHg 83%
    09:00 +25°C° 0.1 mm 2 mps 756 mmHg 81%
    10:00 +26°C° 0.1 mm 2 mps 756 mmHg 79%
    11:00 +27°C° 0.1 mm 2 mps 756 mmHg 76%
    12:00 +28°C° 0.1 mm 2 mps 755 mmHg 73%
    13:00 +29°C° 0.1 mm 2 mps 755 mmHg 70%
    14:00 +29°C° 0.1 mm 1 mps 755 mmHg 67%
    15:00 +29°C° 0.1 mm 1 mps 755 mmHg 64%
    16:00 +29°C° 0.1 mm 1 mps 754 mmHg 62%
    17:00 +28°C° 0 mm 1 mps 754 mmHg 69%
    18:00 +27°C° 0 mm 1 mps 754 mmHg 76%
    19:00 +25°C° 0 mm 1 mps 754 mmHg 83%
    20:00 +24°C° 0 mm 1 mps 754 mmHg 85%
    21:00 +23°C° 0 mm 1 mps 754 mmHg 87%
    22:00 +20°C° 0 mm 0 mps 754 mmHg 89%
    23:00 +20°C° 0 mm 0 mps 754 mmHg 87%

    Mañana, 19 Junio, Miércoles

    Tiempo Temperatura Precipitaciones Viento Presión Humedad
    00:00 +22°C° 0 mm 1 mps 754 mmHg 85%
    01:00 +21°C° 0 mm 1 mps 754 mmHg 83%
    02:00 +21°C° 0 mm 1 mps 754 mmHg 82%
    03:00 +21°C° 0 mm 1 mps 754 mmHg 80%
    04:00 +21°C° 0 mm 1 mps 754 mmHg 79%
    05:00 +21°C° 0 mm 0 mps 754 mmHg 75%
    06:00 +23°C° 0 mm 0 mps 754 mmHg 70%
    07:00 +25°C° 0 mm 0 mps 754 mmHg 66%
    08:00 +26°C° 0 mm 0 mps 754 mmHg 60%
    09:00 +27°C° 0 mm 0 mps 754 mmHg 55%
    10:00 +29°C° 0 mm 0 mps 754 mmHg 49%
    11:00 +31°C° 0 mm 1 mps 754 mmHg 50%
    12:00 +30°C° 0 mm 1 mps 754 mmHg 51%
    13:00 +30°C° 0 mm 2 mps 753 mmHg 52%
    14:00 +30°C° 0 mm 1 mps 753 mmHg 53%
    15:00 +30°C° 0 mm 1 mps 753 mmHg 54%
    16:00 +29°C° 0 mm 1 mps 752 mmHg 55%
    17:00 +28°C° 0 mm 1 mps 752 mmHg 63%
    18:00 +26°C° 0 mm 1 mps 752 mmHg 71%
    19:00 +25°C° 0 mm 1 mps 753 mmHg 79%
    20:00 +24°C° 0 mm 1 mps 753 mmHg 80%
    21:00 +21°C° 0 mm 0 mps 753 mmHg 82%
    22:00 +20°C° 0 mm 0 mps 753 mmHg 83%
    23:00 +20°C° 0 mm 0 mps 753 mmHg 84%

    Pasado mañana, 20 Junio, Jueves

    Tiempo Temperatura Precipitaciones Viento Presión Humedad
    00:00 +19°C° 0 mm 0 mps 753 mmHg 85%
    01:00 +19°C° 0 mm 0 mps 753 mmHg 86%
    02:00 +19°C° 0 mm 0 mps 753 mmHg 85%
    03:00 +21°C° 0 mm 1 mps 753 mmHg 85%
    04:00 +21°C° 0 mm 1 mps 753 mmHg 84%
    05:00 +23°C° 0 mm 1 mps 753 mmHg 78%
    06:00 +25°C° 0 mm 1 mps 753 mmHg 72%
    07:00 +25°C° 0 mm 0 mps 753 mmHg 67%
    08:00 +26°C° 0 mm 0 mps 753 mmHg 63%
    09:00 +29°C° 0 mm 1 mps 753 mmHg 59%
    10:00 +30°C° 0 mm 1 mps 754 mmHg 55%
    11:00 +30°C° 0 mm 1 mps 753 mmHg 53%
    12:00 +30°C° 0 mm 1 mps 753 mmHg 52%
    13:00 +31°C° 0 mm 1 mps 753 mmHg 50%
    14:00 +30°C° 0 mm 1 mps 753 mmHg 50%
    15:00 +30°C° 0 mm 1 mps 753 mmHg 51%
    16:00 +30°C° 0 mm 1 mps 752 mmHg 51%
    17:00 +28°C° 0 mm 1 mps 752 mmHg 58%
    18:00 +27°C° 0 mm 1 mps 752 mmHg 66%
    19:00 +25°C° 0 mm 1 mps 752 mmHg 74%
    20:00 +24°C° 0 mm 1 mps 752 mmHg 69%
    21:00 +23°C° 0 mm 1 mps 753 mmHg 64%
    22:00 +22°C° 0 mm 1 mps 753 mmHg 59%
    23:00 +22°C° 0 mm 1 mps 753 mmHg 60%

    21 Junio, Viernes

    Tiempo Temperatura Precipitaciones Viento Presión Humedad
    00:00 +22°C° 0 mm 1 mps 753 mmHg 61%
    01:00 +22°C° 0 mm 1 mps 753 mmHg 62%
    02:00 +21°C° 0 mm 1 mps 753 mmHg 66%
    03:00 +20°C° 0 mm 2 mps 753 mmHg 70%
    04:00 +20°C° 0 mm 2 mps 753 mmHg 74%
    05:00 +23°C° 0 mm 2 mps 754 mmHg 70%
    06:00 +25°C° 0 mm 2 mps 754 mmHg 67%
    07:00 +27°C° 0 mm 2 mps 754 mmHg 64%
    08:00 +28°C° 0 mm 2 mps 754 mmHg 58%
    09:00 +29°C° 0 mm 2 mps 755 mmHg 53%
    10:00 +30°C° 0 mm 2 mps 755 mmHg 48%
    11:00 +30°C° 0 mm 2 mps 754 mmHg 46%
    12:00 +31°C° 0 mm 2 mps 754 mmHg 45%
    13:00 +31°C° 0 mm 1 mps 754 mmHg 43%
    14:00 +31°C° 0 mm 1 mps 754 mmHg 43%
    15:00 +30°C° 0 mm 1 mps 754 mmHg 43%
    16:00 +30°C° 0 mm 1 mps 754 mmHg 43%
    17:00 +28°C° 0 mm 1 mps 754 mmHg 50%
    18:00 +26°C° 0 mm 1 mps 754 mmHg 57%
    19:00 +25°C° 0 mm 1 mps 754 mmHg 64%
    20:00 +24°C° 0 mm 1 mps 754 mmHg 61%
    21:00 +23°C° 0 mm 1 mps 755 mmHg 58%
    22:00 +23°C° 0 mm 1 mps 755 mmHg 55%
    23:00 +23°C° 0 mm 1 mps 755 mmHg 55%

    22 Junio, Sábado

    Tiempo Temperatura Precipitaciones Viento Presión Humedad
    00:00 +23°C° 0 mm 1 mps 755 mmHg 55%
    01:00 +22°C° 0 mm 1 mps 755 mmHg 56%
    02:00 +22°C° 0 mm 1 mps 755 mmHg 55%
    03:00 +22°C° 0 mm 1 mps 755 mmHg 55%
    04:00 +22°C° 0 mm 1 mps 755 mmHg 55%
    05:00 +24°C° 0 mm 1 mps 755 mmHg 56%
    06:00 +25°C° 0 mm 1 mps 755 mmHg 58%
    07:00 +27°C° 0 mm 2 mps 755 mmHg 59%
    08:00 +29°C° 0 mm 1 mps 755 mmHg 55%
    09:00 +31°C° 0 mm 1 mps 755 mmHg 51%
    10:00 +30°C° 0 mm 0 mps 755 mmHg 48%
    11:00 +32°C° 0 mm 1 mps 755 mmHg 47%
    12:00 +32°C° 0 mm 1 mps 755 mmHg 47%
    13:00 +32°C° 0 mm 1 mps 755 mmHg 47%
    14:00 +32°C° 0 mm 1 mps 755 mmHg 48%
    15:00 +31°C° 0 mm 1 mps 755 mmHg 49%
    16:00 +31°C° 0 mm 1 mps 755 mmHg 50%
    17:00 +29°C° 0 mm 1 mps 755 mmHg 58%
    18:00 +27°C° 0 mm 1 mps 755 mmHg 65%
    19:00 +26°C° 0 mm 1 mps 755 mmHg 72%
    20:00 +25°C° 0 mm 1 mps 755 mmHg 70%
    21:00 +25°C° 0 mm 1 mps 755 mmHg 67%
    22:00 +24°C° 0 mm 1 mps 756 mmHg 65%
    23:00 +24°C° 0 mm 1 mps 756 mmHg 65%

    23 Junio, Domingo

    Tiempo Temperatura Precipitaciones Viento Presión Humedad
    00:00 +23°C° 0 mm 1 mps 756 mmHg 65%
    01:00 +23°C° 0 mm 1 mps 755 mmHg 65%
    02:00 +23°C° 0 mm 1 mps 755 mmHg 65%
    03:00 +23°C° 0 mm 1 mps 755 mmHg 65%
    04:00 +23°C° 0 mm 1 mps 755 mmHg 65%
    05:00 +24°C° 0 mm 1 mps 756 mmHg 64%
    06:00 +26°C° 0 mm 1 mps 756 mmHg 62%
    07:00 +26°C° 0 mm 0 mps 757 mmHg 60%
    08:00 +29°C° 0 mm 1 mps 757 mmHg 55%
    09:00 +31°C° 0 mm 1 mps 757 mmHg 51%
    10:00 +33°C° 0 mm 1 mps 757 mmHg 46%
    11:00 +33°C° 0 mm 1 mps 757 mmHg 46%
    12:00 +32°C° 0 mm 1 mps 757 mmHg 46%
    13:00 +32°C° 0 mm 1 mps 757 mmHg 46%
    14:00 +32°C° 0 mm 1 mps 756 mmHg 47%
    15:00 +32°C° 0 mm 1 mps 756 mmHg 49%
    16:00 +31°C° 0 mm 1 mps 756 mmHg 50%
    17:00 +30°C° 0 mm 1 mps 756 mmHg 58%
    18:00 +26°C° 0 mm 0 mps 756 mmHg 66%
    19:00 +24°C° 0 mm 0 mps 756 mmHg 74%
    20:00 +25°C° 0 mm 1 mps 757 mmHg 73%
    21:00 +25°C° 0 mm 1 mps 757 mmHg 71%
    22:00 +24°C° 0 mm 1 mps 757 mmHg 70%
    23:00 +24°C° 0 mm 1 mps 758 mmHg 69%
    Mostrar más